[[{"header":{"parameterUnit":"m.s-1","parameterCategory":2,"la1":30.2992,"la2":30.254,"lo1":-89.0895,"lo2":-89.0443,"dy":0.0025,"dx":0.0025,"nx":19,"ny":19,"refTime":"2026-05-13T09:00:00:Z","depth":"0","parameterNumber":2,"parameterNumberName":"U-component_of_CURRENTS"},"data":[0,0,0,-0.0522,-0.0522,-0.0517,-0.0516,-0.0473,-0.0473,0,0,0,0,0,0,0,0,0,0,0,-0.0524,-0.0525,-0.0522,-0.0522,-0.0517,-0.0516,-0.0473,-0.0473,0,0,0,0,0,0,0,0,0,0,0,-0.0524,-0.0524,-0.0525,-0.0522,-0.0517,-0.0516,-0.0473,-0.0483,0,0,0,0,0,0,0,0,0,0,-0.0491,-0.0502,-0.0524,-0.0525,-0.0522,-0.0517,-0.0516,-0.0483,-0.0482,-0.0471,0,-0.0483,0,-0.0484,-0.0471,-0.0471,0,0,0,-0.0506,-0.0503,-0.0507,-0.0525,-0.0523,-0.0517,-0.0515,-0.0483,-0.0481,-0.0469,-0.0483,-0.0481,-0.0483,-0.0471,-0.047,-0.0473,-0.0473,0,0,-0.0507,-0.0512,-0.0509,-0.0507,-0.0538,-0.0515,-0.0515,-0.0482,-0.0484,-0.0483,-0.048,-0.0482,-0.047,-0.047,-0.0473,-0.0473,0,0,0,-0.0518,-0.0513,-0.0518,-0.0508,-0.0514,-0.0515,-0.0515,-0.0485,-0.0489,-0.048,-0.0482,-0.047,-0.047,-0.0472,-0.0473,-0.0519,0,0,0,-0.0518,-0.0521,-0.0519,-0.052,-0.0515,-0.0504,-0.0518,-0.0491,-0.0488,-0.0482,-0.047,-0.0469,-0.0472,-0.0473,-0.0517,-0.0537,0,0,0,-0.0521,-0.0521,-0.0527,-0.0521,-0.0526,-0.0505,-0.0506,-0.049,-0.0489,-0.0471,-0.0469,-0.0472,-0.0473,-0.0515,-0.0534,-0.0566,0,0,0,-0.0517,-0.0555,-0.0527,-0.0557,-0.0527,-0.0547,-0.0506,-0.0507,-0.0497,-0.047,-0.0472,-0.0473,-0.0515,-0.0533,-0.0564,-0.0571,-0.0581,0,0,-0.0567,-0.0561,-0.0576,-0.0551,-0.0569,-0.0546,-0.057,-0.0535,-0.05,-0.0477,-0.0477,-0.0518,-0.0534,-0.0566,-0.0609,-0.0618,0,0,0,-0.0592,-0.0604,-0.0603,-0.0602,-0.06,-0.0597,-0.0579,-0.0566,-0.0538,-0.05,-0.0518,-0.0527,-0.0546,-0.0545,-0.0553,-0.0559,-0.0476,-0.0476,-0.0476,-0.0645,-0.0633,-0.0648,-0.064,-0.0645,-0.0636,-0.0637,-0.0615,-0.0581,-0.0577,-0.0565,-0.0621,-0.0622,-0.0627,-0.0634,-0.0565,-0.0566,-0.0566,-0.0566,-0.0689,-0.0689,-0.0666,-0.0678,-0.0663,-0.0672,-0.0675,-0.0661,-0.0663,-0.0617,-0.0632,-0.0595,-0.0637,-0.0642,-0.0569,-0.0568,-0.0568,-0.0568,-0.0568,-0.0698,-0.0701,-0.0699,-0.0695,-0.068,-0.0674,-0.0677,-0.0691,-0.0693,-0.0712,-0.0697,-0.0696,-0.0699,-0.0712,-0.0712,-0.0712,-0.0712,-0.0712,-0.0713,-0.0705,-0.071,-0.0712,-0.0705,-0.0678,-0.0662,-0.0677,-0.0697,-0.074,-0.075,-0.075,-0.0722,-0.0665,-0.0659,-0.0716,-0.0716,-0.0715,-0.0715,-0.0715,-0.0724,-0.0723,-0.0724,-0.0708,-0.0652,-0.0611,-0.0647,-0.07,-0.0748,-0.0775,-0.0809,-0.0773,-0.0759,-0.0753,-0.0748,-0.0825,-0.0825,-0.0825,-0.0825,-0.0724,-0.073,-0.0711,-0.0675,-0.0624,-0.0584,-0.0585,-0.0673,-0.0795,-0.0863,-0.0859,-0.0828,-0.0823,-0.081,-0.0803,-0.0798,-0.0886,-0.0886,-0.0886,-0.0724,-0.0718,-0.0693,-0.066,-0.0588,-0.054,-0.0532,-0.0669,-0.0873,-0.0889,-0.0872,-0.0869,-0.0821,-0.0812,-0.0786,-0.0775,-0.0764,0,0]},{"header":{"parameterUnit":"m.s-1","parameterCategory":2,"la1":30.2992,"la2":30.254,"lo1":-89.0895,"lo2":-89.0443,"dy":0.0025,"dx":0.0025,"nx":19,"ny":19,"refTime":"2026-05-13T09:00:00:Z","depth":"0","parameterNumber":3,"parameterNumberName":"V-component_of_CURRENTS"},"data":[0,0,0,-0.0818,-0.0816,-0.0662,-0.0661,-0.0609,-0.061,0,0,0,0,0,0,0,0,0,0,0,-0.0884,-0.0884,-0.0819,-0.0815,-0.0662,-0.0661,-0.0609,-0.061,0,0,0,0,0,0,0,0,0,0,0,-0.0885,-0.0884,-0.0884,-0.0815,-0.0662,-0.0661,-0.0609,-0.0685,0,0,0,0,0,0,0,0,0,0,-0.0815,-0.0847,-0.0884,-0.0884,-0.0814,-0.0662,-0.0661,-0.0687,-0.0681,-0.0726,0,-0.0717,0,-0.0668,-0.0611,-0.0611,0,0,0,-0.0799,-0.0852,-0.0827,-0.0884,-0.0813,-0.0663,-0.0727,-0.0682,-0.0675,-0.0718,-0.0715,-0.0712,-0.0667,-0.0611,-0.0611,-0.0668,-0.0668,0,0,-0.0808,-0.0839,-0.0831,-0.0823,-0.0797,-0.0732,-0.0722,-0.0676,-0.0674,-0.0715,-0.071,-0.0666,-0.0611,-0.0611,-0.0667,-0.0668,0,0,0,-0.0843,-0.0846,-0.0816,-0.0827,-0.079,-0.0728,-0.0717,-0.0675,-0.0671,-0.0709,-0.0665,-0.0611,-0.0612,-0.0667,-0.0667,-0.0684,0,0,0,-0.0847,-0.0867,-0.0821,-0.0835,-0.0791,-0.0707,-0.0717,-0.0673,-0.0666,-0.0666,-0.0611,-0.0612,-0.0666,-0.0667,-0.0683,-0.0715,0,0,0,-0.0887,-0.087,-0.0863,-0.0838,-0.0778,-0.0706,-0.0695,-0.0669,-0.0642,-0.0611,-0.0612,-0.0666,-0.0667,-0.0681,-0.0712,-0.0758,0,0,0,-0.091,-0.0895,-0.0864,-0.083,-0.078,-0.0716,-0.0694,-0.064,-0.0614,-0.0611,-0.0666,-0.0667,-0.0681,-0.071,-0.0755,-0.0894,-0.0916,0,0,-0.0902,-0.0894,-0.0873,-0.0841,-0.0789,-0.0734,-0.0697,-0.0656,-0.0653,-0.0688,-0.0687,-0.0683,-0.0711,-0.0757,-0.0958,-0.0978,0,0,0,-0.0876,-0.0871,-0.0848,-0.0808,-0.0757,-0.0732,-0.0675,-0.0675,-0.068,-0.0645,-0.0701,-0.072,-0.0747,-0.0827,-0.0843,-0.0684,-0.0672,-0.0672,-0.0672,-0.0911,-0.0873,-0.0844,-0.0805,-0.0776,-0.073,-0.0726,-0.0729,-0.0705,-0.0723,-0.0745,-0.0812,-0.0897,-0.0911,-0.0744,-0.0747,-0.0747,-0.0747,-0.0747,-0.0919,-0.0893,-0.0865,-0.083,-0.0809,-0.0789,-0.0791,-0.0782,-0.0822,-0.0786,-0.0811,-0.0857,-0.0929,-0.0746,-0.0748,-0.0748,-0.0748,-0.0748,-0.0748,-0.0947,-0.0924,-0.0916,-0.0885,-0.0869,-0.0839,-0.0883,-0.0871,-0.0866,-0.0889,-0.0983,-0.0984,-0.0814,-0.0894,-0.0894,-0.0894,-0.0895,-0.0895,-0.0895,-0.0968,-0.0954,-0.096,-0.0936,-0.0931,-0.0938,-0.0944,-0.0985,-0.1041,-0.1044,-0.1045,-0.0836,-0.0858,-0.0842,-0.09,-0.09,-0.0899,-0.0898,-0.0898,-0.0939,-0.0971,-0.0988,-0.0998,-0.1013,-0.108,-0.108,-0.1204,-0.1234,-0.13,-0.1048,-0.1134,-0.1151,-0.114,-0.1133,-0.1263,-0.1263,-0.1263,-0.1263,-0.0928,-0.0941,-0.0988,-0.1035,-0.1094,-0.1142,-0.1299,-0.1399,-0.1333,-0.1265,-0.1102,-0.1056,-0.1048,-0.1053,-0.1044,-0.1031,-0.1132,-0.1131,-0.113,-0.0888,-0.0926,-0.0952,-0.1033,-0.1118,-0.1234,-0.1386,-0.1508,-0.1387,-0.1098,-0.0846,-0.0852,-0.075,-0.0751,-0.073,-0.0729,-0.0699,0,0]}],[{"header":{"parameterUnit":"m.s-1","parameterCategory":2,"la1":30.2992,"la2":30.254,"lo1":-89.0895,"lo2":-89.0443,"dy":0.0025,"dx":0.0025,"nx":19,"ny":19,"refTime":"2026-05-13T09:00:00:Z","depth":"2","parameterNumber":2,"parameterNumberName":"U-component_of_CURRENTS"},"data":[0,0,0,-0.1035,-0.1033,-0.0952,-0.0951,-0.1025,-0.1026,0,0,0,0,0,0,0,0,0,0,0,-0.1057,-0.1056,-0.1035,-0.1033,-0.0952,-0.0951,-0.1025,-0.1026,0,0,0,0,0,0,0,0,0,0,0,-0.1057,-0.1056,-0.1055,-0.1033,-0.0952,-0.0951,-0.1025,-0.1042,0,0,0,0,0,0,0,0,0,0,-0.1098,-0.1075,-0.1056,-0.1055,-0.1032,-0.0952,-0.0951,-0.104,-0.1041,-0.1113,0,-0.1089,0,-0.1067,-0.1035,-0.1036,0,0,0,-0.1032,-0.1074,-0.1073,-0.1055,-0.1031,-0.0952,-0.0988,-0.1039,-0.104,-0.1114,-0.1089,-0.1091,-0.1068,-0.1036,-0.1037,-0.1164,-0.1164,0,0,-0.1037,-0.103,-0.1071,-0.1072,-0.1,-0.0991,-0.0986,-0.1037,-0.1027,-0.1089,-0.1092,-0.107,-0.1037,-0.1038,-0.1164,-0.1164,0,0,0,-0.105,-0.1033,-0.1026,-0.1071,-0.1046,-0.0988,-0.0982,-0.1023,-0.1026,-0.1092,-0.107,-0.1038,-0.104,-0.1163,-0.1164,-0.1105,0,0,0,-0.1053,-0.1041,-0.1027,-0.1021,-0.1043,-0.1005,-0.0968,-0.1021,-0.1026,-0.107,-0.1038,-0.1041,-0.1163,-0.1163,-0.1105,-0.1123,0,0,0,-0.1062,-0.1042,-0.1033,-0.1021,-0.0989,-0.1003,-0.1006,-0.1021,-0.1015,-0.1036,-0.1041,-0.1162,-0.1163,-0.1106,-0.1123,-0.1166,0,0,0,-0.106,-0.1034,-0.1032,-0.1011,-0.099,-0.0988,-0.1004,-0.0993,-0.1005,-0.1039,-0.1163,-0.1164,-0.1106,-0.1123,-0.1165,-0.1154,-0.1156,0,0,-0.1032,-0.1029,-0.1026,-0.1023,-0.1021,-0.1,-0.1003,-0.1015,-0.1052,-0.1158,-0.1159,-0.1105,-0.1123,-0.1166,-0.1206,-0.1207,0,0,0,-0.1023,-0.1019,-0.1021,-0.1014,-0.1016,-0.1015,-0.1008,-0.1018,-0.1056,-0.1063,-0.114,-0.1156,-0.1183,-0.1176,-0.1177,-0.1168,-0.1168,-0.1168,-0.1168,-0.0985,-0.1004,-0.1008,-0.1025,-0.1026,-0.1027,-0.104,-0.1066,-0.1072,-0.1073,-0.113,-0.1162,-0.1152,-0.1153,-0.1136,-0.1136,-0.1136,-0.1136,-0.1136,-0.0989,-0.0989,-0.1024,-0.1028,-0.104,-0.1036,-0.1075,-0.1063,-0.1126,-0.1106,-0.1134,-0.1144,-0.115,-0.1132,-0.1132,-0.1133,-0.1133,-0.1134,-0.1134,-0.0973,-0.0968,-0.0986,-0.1014,-0.1026,-0.1038,-0.1086,-0.1099,-0.1114,-0.1145,-0.1173,-0.1173,-0.1144,-0.1149,-0.1149,-0.1149,-0.1149,-0.115,-0.115,-0.0924,-0.0948,-0.0956,-0.1003,-0.1011,-0.1037,-0.1082,-0.1118,-0.1154,-0.116,-0.116,-0.1168,-0.1168,-0.1149,-0.1154,-0.1153,-0.1152,-0.1152,-0.1152,-0.0848,-0.0868,-0.0896,-0.0918,-0.098,-0.099,-0.1073,-0.1117,-0.1191,-0.1209,-0.1184,-0.1182,-0.122,-0.122,-0.1205,-0.1224,-0.1224,-0.1224,-0.1224,-0.0773,-0.08,-0.0809,-0.085,-0.0904,-0.0956,-0.0991,-0.109,-0.1161,-0.1177,-0.1179,-0.1135,-0.1133,-0.1165,-0.1166,-0.115,-0.1155,-0.1155,-0.1154,-0.0704,-0.0735,-0.0709,-0.0775,-0.0833,-0.0878,-0.087,-0.0946,-0.1035,-0.115,-0.1152,-0.1222,-0.116,-0.1157,-0.1209,-0.1209,-0.1185,0,0]},{"header":{"parameterUnit":"m.s-1","parameterCategory":2,"la1":30.2992,"la2":30.254,"lo1":-89.0895,"lo2":-89.0443,"dy":0.0025,"dx":0.0025,"nx":19,"ny":19,"refTime":"2026-05-13T09:00:00:Z","depth":"2","parameterNumber":3,"parameterNumberName":"V-component_of_CURRENTS"},"data":[0,0,0,0.0449,0.0447,0.0365,0.0364,0.0394,0.0394,0,0,0,0,0,0,0,0,0,0,0,0.0474,0.0473,0.0449,0.0447,0.0365,0.0364,0.0394,0.0394,0,0,0,0,0,0,0,0,0,0,0,0.0474,0.0473,0.0472,0.0446,0.0365,0.0364,0.0393,0.0422,0,0,0,0,0,0,0,0,0,0,0.0485,0.047,0.0474,0.0472,0.0446,0.0365,0.0364,0.0422,0.0421,0.0469,0,0.0447,0,0.0426,0.0399,0.04,0,0,0,0.0447,0.0471,0.0469,0.0472,0.0445,0.0365,0.0402,0.042,0.0419,0.0468,0.0447,0.0448,0.0427,0.04,0.04,0.0413,0.0413,0,0,0.0452,0.0445,0.0469,0.0467,0.0415,0.0404,0.0399,0.0418,0.0404,0.0447,0.0448,0.0427,0.04,0.0401,0.0414,0.0413,0,0,0,0.0464,0.0448,0.0442,0.0467,0.0444,0.0402,0.0396,0.0403,0.0406,0.0448,0.0427,0.0401,0.0402,0.0414,0.0414,0.0314,0,0,0,0.0467,0.0456,0.0444,0.0437,0.0442,0.0399,0.0381,0.0404,0.0405,0.0427,0.0401,0.0402,0.0415,0.0414,0.0318,0.0301,0,0,0,0.0479,0.0457,0.0449,0.0438,0.0404,0.0398,0.0399,0.0403,0.0394,0.04,0.0403,0.0415,0.0414,0.0321,0.0306,0.0314,0,0,0,0.0475,0.0413,0.0448,0.037,0.0405,0.0346,0.0399,0.0357,0.0351,0.0401,0.0415,0.0414,0.0322,0.0309,0.0317,0.03,0.0288,0,0,0.0392,0.0403,0.0357,0.0386,0.0314,0.0358,0.0286,0.0307,0.0361,0.042,0.0419,0.0316,0.0306,0.0315,0.0243,0.0233,0,0,0,0.0327,0.0299,0.0281,0.0248,0.0237,0.0236,0.0245,0.0266,0.0289,0.0353,0.0325,0.0322,0.033,0.0325,0.0317,0.0409,0.0409,0.0409,0.0409,0.0223,0.022,0.0162,0.0159,0.014,0.0146,0.0152,0.0195,0.023,0.0225,0.0245,0.0193,0.0183,0.0177,0.0238,0.0237,0.0237,0.0237,0.0236,0.0128,0.0091,0.0114,0.0057,0.0079,0.0044,0.0085,0.01,0.0132,0.0162,0.0174,0.0225,0.0162,0.0229,0.023,0.0231,0.0232,0.0233,0.0233,0.0077,0.0056,0.0041,-0.0002,-0.0014,-0.0007,0.0004,0.0037,0.0072,0.0072,0.011,0.0112,0.0161,0.0074,0.0074,0.0074,0.0074,0.0074,0.0074,0.002,0.0008,-0.0048,-0.0064,-0.009,-0.0088,-0.0048,-0.0025,0.0006,0.0028,0.0029,0.014,0.0145,0.0154,0.0073,0.0073,0.0073,0.0073,0.0073,-0.0112,-0.0092,-0.017,-0.0205,-0.0228,-0.0217,-0.0157,-0.011,-0.0071,-0.006,0.0025,0.0027,0.0076,0.0083,0.0092,0.0,0.0,0.0,0.0,-0.0198,-0.0192,-0.0297,-0.0346,-0.0355,-0.029,-0.0285,-0.0083,0.0052,0.0229,0.0221,0.0247,0.0242,0.0305,0.0308,0.0324,0.0292,0.0294,0.0295,-0.0307,-0.0308,-0.0404,-0.0416,-0.0416,-0.0374,-0.0327,0.0001,0.0433,0.0319,0.0408,-0.0007,0.0005,0.0008,0.0087,0.0098,0.0117,0,0]}],[{"header":{"parameterUnit":"m.s-1","parameterCategory":2,"la1":30.2992,"la2":30.254,"lo1":-89.0895,"lo2":-89.0443,"dy":0.0025,"dx":0.0025,"nx":19,"ny":19,"refTime":"2026-05-13T09:00:00:Z","depth":"4","parameterNumber":2,"parameterNumberName":"U-component_of_CURRENTS"},"data":[0,0,0,-0.0932,-0.0935,-0.1024,-0.1024,-0.1248,-0.1251,0,0,0,0,0,0,0,0,0,0,0,-0.0883,-0.0884,-0.0932,-0.0936,-0.1024,-0.1024,-0.1248,-0.1251,0,0,0,0,0,0,0,0,0,0,0,-0.0882,-0.0884,-0.0885,-0.0936,-0.1024,-0.1024,-0.1247,-0.1143,0,0,0,0,0,0,0,0,0,0,-0.104,-0.0957,-0.0883,-0.0885,-0.0937,-0.1024,-0.1024,-0.1137,-0.115,-0.1252,0,-0.128,0,-0.1303,-0.1272,-0.1273,0,0,0,-0.0897,-0.0945,-0.1018,-0.0885,-0.0938,-0.1024,-0.0973,-0.1143,-0.1158,-0.127,-0.1283,-0.1292,-0.1307,-0.1274,-0.1276,-0.1519,-0.1519,0,0,-0.0892,-0.0854,-0.1007,-0.1028,-0.0986,-0.0971,-0.0976,-0.115,-0.1152,-0.1284,-0.1297,-0.131,-0.1276,-0.1279,-0.1518,-0.1519,0,0,0,-0.0904,-0.085,-0.0913,-0.1019,-0.1044,-0.0974,-0.0981,-0.1142,-0.1178,-0.1299,-0.1313,-0.1278,-0.1282,-0.1518,-0.1518,-0.1522,0,0,0,-0.0899,-0.0862,-0.0911,-0.0883,-0.104,-0.1073,-0.0968,-0.1163,-0.1185,-0.1312,-0.1278,-0.1285,-0.1518,-0.1518,-0.1522,-0.135,0,0,0,-0.0874,-0.0858,-0.0885,-0.0882,-0.0946,-0.107,-0.111,-0.1166,-0.1197,-0.1273,-0.1286,-0.1517,-0.1518,-0.1521,-0.1355,-0.1331,0,0,0,-0.0808,-0.0843,-0.0884,-0.0926,-0.0945,-0.0983,-0.1108,-0.1139,-0.1188,-0.128,-0.1518,-0.1518,-0.1521,-0.1358,-0.1333,-0.124,0,0,0,-0.0817,-0.0841,-0.087,-0.0912,-0.0966,-0.0967,-0.0993,-0.1122,-0.1246,-0.1462,-0.1466,-0.1522,-0.1355,-0.1331,-0.1285,0,0,0,0,-0.0851,-0.0871,-0.0892,-0.0939,-0.0975,-0.0962,-0.1051,-0.1157,-0.1368,-0.1294,-0.1535,-0.1426,-0.1413,-0.137,-0.1522,-0.1522,-0.1522,-0.1522,-0.1521,-0.0791,-0.0849,-0.0881,-0.0937,-0.0944,-0.0972,-0.0981,-0.1141,-0.133,-0.145,-0.1449,-0.1427,-0.1392,-0.156,-0.156,-0.156,-0.156,-0.156,-0.156,-0.079,-0.0811,-0.0863,-0.0914,-0.0923,-0.0935,-0.1028,-0.1131,-0.1286,-0.1461,-0.1457,-0.1398,-0.1561,-0.1561,-0.1561,-0.1561,-0.156,-0.156,-0.156,-0.0728,-0.0748,-0.0798,-0.0862,-0.0893,-0.0926,-0.0955,-0.1059,-0.1204,-0.1187,-0.1229,-0.1369,-0.1345,-0.1301,-0.13,-0.1299,-0.1299,-0.1298,-0.1298,-0.064,-0.0695,-0.072,-0.0809,-0.0856,-0.0903,-0.095,-0.0963,-0.1057,-0.1074,-0.1207,-0.1336,-0.1345,-0.1327,-0.1285,-0.1288,-0.1289,-0.129,-0.1291,-0.058,-0.0592,-0.0634,-0.068,-0.0797,-0.0849,-0.0909,-0.0869,-0.0864,-0.0828,-0.103,-0.1047,-0.0995,-0.101,-0.0979,-0.0831,-0.083,-0.0828,0,-0.0513,-0.0529,-0.0557,-0.0611,-0.0684,-0.0795,-0.0761,-0.0772,-0.0775,-0.0762,-0.0871,-0.1102,-0.1114,-0.1064,-0.1075,-0.1042,0,0,0,-0.0472,-0.0486,-0.0482,-0.0544,-0.0633,-0.0684,-0.0749,-0.0709,-0.0798,-0.0717,-0.079,-0.08,-0.1137,-0.1249,-0.1205,-0.1215,-0.1182,0,0]},{"header":{"parameterUnit":"m.s-1","parameterCategory":2,"la1":30.2992,"la2":30.254,"lo1":-89.0895,"lo2":-89.0443,"dy":0.0025,"dx":0.0025,"nx":19,"ny":19,"refTime":"2026-05-13T09:00:00:Z","depth":"4","parameterNumber":3,"parameterNumberName":"V-component_of_CURRENTS"},"data":[0,0,0,0.0034,0.0033,-0.003,-0.003,-0.0059,-0.0059,0,0,0,0,0,0,0,0,0,0,0,0.005,0.005,0.0034,0.0033,-0.003,-0.003,-0.0059,-0.0059,0,0,0,0,0,0,0,0,0,0,0,0.005,0.005,0.005,0.0033,-0.003,-0.003,-0.0059,-0.0031,0,0,0,0,0,0,0,0,0,0,0.0021,0.0033,0.005,0.005,0.0033,-0.0029,-0.003,-0.003,-0.0033,-0.0008,0,-0.0006,0,-0.0017,-0.0057,-0.0057,0,0,0,0.0007,0.0034,0.003,0.005,0.0033,-0.0029,-0.0009,-0.0032,-0.0035,-0.0011,-0.0006,-0.0008,-0.0017,-0.0057,-0.0057,-0.0089,-0.009,0,0,0.0011,0.0024,0.0031,0.0029,0.0034,-0.0006,-0.001,-0.0035,-0.0035,-0.0007,-0.0009,-0.0018,-0.0057,-0.0057,-0.0089,-0.0089,0,0,0,0.0038,0.0027,0.002,0.003,0.0023,-0.0008,-0.0012,-0.0035,-0.0033,-0.0009,-0.0018,-0.0057,-0.0057,-0.0088,-0.0089,-0.0095,0,0,0,0.0039,0.0045,0.0022,0.0027,0.0024,-0.0014,-0.0011,-0.0032,-0.0035,-0.0018,-0.0057,-0.0057,-0.0087,-0.0088,-0.0094,-0.0156,0,0,0,0.0049,0.0045,0.0046,0.0028,0.0015,-0.0014,-0.0016,-0.0034,-0.0038,-0.0057,-0.0056,-0.0087,-0.0088,-0.0092,-0.0152,-0.0076,0,0,0,0.0053,0.0032,0.0046,0.0,0.0016,-0.0075,-0.0016,-0.0088,-0.0117,-0.0057,-0.0087,-0.0089,-0.0092,-0.015,-0.0076,0.0055,0,0,0,0.0021,0.0028,-0.0007,0.0004,-0.0074,-0.0069,-0.0164,-0.0167,-0.0119,-0.0078,-0.008,-0.0094,-0.0152,-0.0076,-0.0021,0,0,0,0,-0.0024,-0.004,-0.0066,-0.0105,-0.0154,-0.0194,-0.0219,-0.018,-0.0134,-0.0132,-0.0118,-0.0157,-0.0106,-0.003,-0.0095,-0.0095,-0.0095,-0.0094,-0.0094,-0.0036,-0.0081,-0.0143,-0.0196,-0.0246,-0.0299,-0.0322,-0.0271,-0.0208,-0.0168,-0.0176,-0.0158,-0.0081,-0.0162,-0.0162,-0.0162,-0.0162,-0.0162,-0.0162,-0.009,-0.013,-0.0184,-0.0253,-0.0296,-0.0362,-0.0361,-0.0322,-0.025,-0.0197,-0.0143,-0.0066,-0.0164,-0.0163,-0.0163,-0.0163,-0.0163,-0.0163,-0.0163,-0.009,-0.0116,-0.0158,-0.0247,-0.031,-0.0368,-0.036,-0.0357,-0.0269,-0.0267,-0.0076,-0.0158,-0.0135,-0.0163,-0.0163,-0.0163,-0.0163,-0.0163,-0.0163,-0.0063,-0.0112,-0.0155,-0.0236,-0.0276,-0.0313,-0.0329,-0.0274,-0.0223,-0.012,-0.023,-0.0158,-0.0158,-0.0136,-0.0162,-0.0162,-0.0162,-0.0162,-0.0162,-0.0079,-0.0075,-0.0135,-0.0174,-0.0257,-0.0271,-0.0277,-0.0123,-0.0035,0.0069,-0.0008,-0.0016,0.0005,0.0001,0.003,0.0052,0.0054,0.0055,0,-0.0063,-0.0076,-0.0128,-0.0176,-0.0215,-0.0255,-0.0105,-0.0025,0.004,0.0026,-0.0067,-0.0168,-0.0168,-0.0158,-0.0158,-0.0132,0,0,0,-0.0073,-0.008,-0.0108,-0.0158,-0.0208,-0.0116,-0.007,0.0008,0.0011,0.0193,0.0096,0.0085,-0.0028,-0.016,-0.0145,-0.0145,-0.0109,0,0]}]]